Location: Heidgraben
(53.7081°N, 9.6576°E)
Time: 21:01:35
(UTC+00:00)

NOSS 3-4 (A) - Pass Details

Date: 05 July 2020
Orbit: 892 x 1320 km, 63.4° (Epoch: 12 July)

Event Time Altitude Azimuth Distance (km) Brightness Sun altitude
Rises 22:04:10 0° 312° (NW) 3,777 7.7 -11.6°
Reaches altitude 10° 22:06:41 10° 309° (NW) 2,879 6.9 -11.7°
Maximum altitude 22:13:27 63° 231° (SW) 1,256 4.0 -12.0°
Enters shadow 22:19:47 15° 154° (SSE) 2,781 5.2 -12.3°
